Location: Anjeux
(47.8815°N, 6.2076°E)
Time: 17:41:37
(UTC+00:00)

BEESAT 2 - Visible Passes

Search period start: 07 December 2021 00:00
Search period end: 17 December 2021 00:00
Orbit: 497 x 516 km, 64.9° (Epoch: 06 December)

Date Brightness Start Highest point End Pass type
(mag) Time Alt. Az. Time Alt. Az. Time Alt. Az.
07 Dec ? 04:58:54 65° NNW 04:59:26 82° NE 05:03:18 10° SE visible
08 Dec ? 04:41:22 64° ESE 04:41:22 64° ESE 04:44:43 10° SE visible
08 Dec ? 06:16:12 10° W 06:17:42 12° WSW 06:19:16 10° SW visible
09 Dec ? 04:23:55 32° SE 04:23:55 32° SE 04:26:07 10° SE visible
09 Dec ? 05:58:45 13° WSW 05:59:08 13° WSW 06:00:52 10° SW visible
10 Dec ? 04:06:32 17° SE 04:06:32 17° SE 04:07:31 10° SE visible
10 Dec ? 05:41:22 13° SW 05:41:22 13° SW 05:42:26 10° SW visible
14 Dec ? 18:14:11 10° S 18:14:38 13° S 18:14:38 13° S visible
15 Dec ? 17:55:37 10° S 17:57:17 21° SSE 17:57:17 21° SSE visible
16 Dec ? 17:37:02 10° S 17:39:52 28° SE 17:39:52 28° SE visible
16 Dec ? 19:14:11 10° WSW 19:14:42 13° WSW 19:14:42 13° WSW visible
